| time (UTC) | temp F | wind direction | speed knots | gust knots | rain 1hr in | rain 24hr in | rain mn in | humidity % | barometer mb |
| 20260906043047 | 71 | 257 | 0.0 | 0.0 | 0.00 | 0.36 | 0.36 | 68 | 957.0 |
| 20260906041540 | 72 | 257 | 0.0 | 0.0 | 0.00 | 0.36 | 0.36 | 68 | 957.1 |
| 20260906040052 | 72 | 257 | 0.0 | 0.0 | 0.00 | 0.36 | 0.36 | 68 | 957.2 |
| 20260906034608 | 72 | 257 | 0.0 | 0.0 | 0.00 | 0.36 | 0.36 | 67 | 957.4 |
| 20260906033008 | 73 | 257 | 0.0 | 0.0 | 0.00 | 0.36 | 0.36 | 67 | 957.5 |
| 20260906031510 | 73 | 257 | 0.0 | 0.0 | 0.00 | 0.36 | 0.36 | 64 | 957.2 |
| 20260906030003 | 73 | 257 | 0.0 | 0.0 | 0.00 | 0.36 | 0.36 | 60 | 957.3 |
| 20260906024502 | 73 | 258 | 0.0 | 0.0 | 0.00 | 0.36 | 0.36 | 57 | 957.3 |
| 20260906023130 | 73 | 258 | 0.0 | 0.0 | 0.00 | 0.36 | 0.36 | 50 | 957.1 |
| 20260906021559 | 73 | 281 | 0.0 | 0.0 | 0.00 | 0.36 | 0.36 | 44 | 956.8 |
| 20260906020055 | 73 | 281 | 0.0 | 0.0 | 0.00 | 0.36 | 0.36 | 36 | 956.7 |
| 20260906014613 | 74 | 281 | 0.0 | 0.0 | 0.00 | 0.36 | 0.36 | 26 | 956.8 |
| 20260906013057 | 74 | 281 | 0.0 | 0.0 | 0.00 | 0.36 | 0.36 | 21 | 956.7 |
| 20260906011556 | 74 | 281 | 0.0 | 0.0 | 0.00 | 0.36 | 0.36 | 13 | 956.7 |
| 20260906010048 | 74 | 285 | 0.0 | 0.0 | 0.00 | 0.36 | 0.36 | 21 | 956.8 |
| 20260906004551 | 75 | 286 | 0.0 | 0.0 | 0.00 | 0.36 | 0.36 | 31 | 956.5 |
| 20260906003052 | 75 | 286 | 0.0 | 1.7 | 0.00 | 0.36 | 0.36 | 38 | 956.5 |
| 20260906001544 | 76 | 286 | 0.9 | 1.7 | 0.00 | 0.36 | 0.36 | 45 | 956.4 |
| 20260906000042 | 77 | 328 | 1.7 | 2.6 | 0.00 | 0.36 | 0.36 | 49 | 956.3 |
| 20260905234552 | 78 | 333 | 0.0 | 0.9 | 0.00 | 0.36 | 0.36 | 50 | 956.2 |
| 20260905233041 | 79 | 333 | 0.0 | 0.9 | 0.00 | 0.36 | 0.36 | 50 | 956.0 |
| 20260905231540 | 79 | 331 | 0.0 | 1.7 | 0.00 | 0.36 | 0.36 | 49 | 955.7 |
| 20260905230042 | 80 | 331 | 0.0 | 2.6 | 0.00 | 0.36 | 0.36 | 47 | 955.8 |
| 20260905224539 | 81 | 349 | 1.7 | 3.5 | 0.00 | 0.36 | 0.36 | 46 | 955.6 |
| 20260905223038 | 80 | 343 | 1.7 | 2.6 | 0.00 | 0.36 | 0.36 | 46 | 955.6 |
| 20260905221541 | 80 | 269 | 0.9 | 2.6 | 0.00 | 0.36 | 0.36 | 45 | 955.7 |
| 20260905220033 | 79 | 294 | 1.7 | 3.5 | 0.00 | 0.36 | 0.36 | 44 | 955.6 |
| 20260905214532 | 77 | 351 | 2.6 | 7.0 | 0.00 | 0.36 | 0.36 | 44 | 955.8 |
| 20260905213030 | 76 | 320 | 1.7 | 4.3 | 0.00 | 0.36 | 0.36 | 43 | 956.1 |
| 20260905211527 | 75 | 291 | 1.7 | 6.1 | 0.00 | 0.36 | 0.36 | 38 | 956.4 |
| 20260905210017 | 74 | 334 | 1.7 | 3.5 | 0.00 | 0.36 | 0.36 | 30 | 956.6 |
| 20260905204517 | 72 | 273 | 1.7 | 5.2 | 0.00 | 0.36 | 0.36 | 41 | 957.2 |
| 20260905203015 | 71 | 286 | 0.9 | 3.5 | 0.01 | 0.36 | 0.36 | 46 | 957.4 |
| 20260905201518 | 71 | 323 | 2.6 | 3.5 | 0.03 | 0.36 | 0.36 | 39 | 957.5 |
| 20260905200018 | 70 | 167 | 0.9 | 2.6 | 0.28 | 0.36 | 0.36 | 17 | 957.3 |
| 20260905194516 | 69 | 190 | 1.7 | 2.6 | 0.36 | 0.36 | 0.36 | 14 | 957.2 |
| 20260905193011 | 70 | 98 | 2.6 | 6.1 | 0.35 | 0.35 | 0.35 | 39 | 956.5 |
| 20260905191507 | 71 | 269 | 2.6 | 10.4 | 0.33 | 0.33 | 0.33 | 52 | 957.7 |
| 20260905184601 | 90 | 30 | 7.0 | 14.8 | 0.00 | 0.00 | 0.00 | 36 | 957.8 |
| 20260905183110 | 94 | 15 | 1.7 | 5.2 | 0.00 | 0.00 | 0.00 | 38 | 956.7 |
| 20260905181501 | 95 | 155 | 3.5 | 7.0 | 0.00 | 0.00 | 0.00 | 38 | 955.9 |
| 20260905180058 | 94 | 213 | 0.9 | 8.7 | 0.00 | 0.00 | 0.00 | 39 | 956.6 |
| 20260905174555 | 95 | 19 | 3.5 | 7.8 | 0.00 | 0.00 | 0.00 | 37 | 957.0 |
| 20260905173054 | 94 | 300 | 0.9 | 6.1 | 0.00 | 0.00 | 0.00 | 40 | 957.4 |
| 20260905171556 | 94 | 24 | 0.0 | 4.3 | 0.00 | 0.00 | 0.00 | 41 | 957.6 |
| 20260905170049 | 93 | 37 | 2.6 | 6.1 | 0.00 | 0.00 | 0.00 | 41 | 957.8 |
| 20260905164550 | 92 | 227 | 0.9 | 4.3 | 0.00 | 0.00 | 0.00 | 42 | 958.2 |
| 20260905163047 | 92 | 260 | 0.9 | 3.5 | 0.00 | 0.00 | 0.00 | 45 | 958.3 |
| 20260905161546 | 92 | 176 | 0.0 | 3.5 | 0.00 | 0.00 | 0.00 | 47 | 958.4 |
| 20260905160016 | 91 | 336 | 0.9 | 3.5 | 0.00 | 0.00 | 0.00 | 45 | 958.7 |
| 20260905154517 | 89 | 148 | 0.0 | 2.6 | 0.00 | 0.00 | 0.00 | 18 | 958.6 |
| 20260905153055 | 89 | 165 | 0.0 | 0.0 | 0.00 | 0.00 | 0.00 | 19 | 958.5 |
| 20260905151544 | 88 | 301 | 0.0 | 0.0 | 0.00 | 0.00 | 0.00 | 21 | 958.5 |
| 20260905150055 | 86 | 248 | 0.0 | 0.0 | 0.00 | 0.00 | 0.00 | 25 | 958.7 |
| 20260905144651 | 85 | 236 | 0.0 | 0.0 | 0.00 | 0.00 | 0.00 | 29 | 958.6 |
| 20260905143006 | 84 | 296 | 0.0 | 0.0 | 0.00 | 0.00 | 0.00 | 36 | 958.7 |
| 20260905141502 | 83 | 223 | 0.0 | 0.0 | 0.00 | 0.00 | 0.00 | 43 | 958.8 |
| 20260905140002 | 82 | 206 | 0.0 | 0.0 | 0.00 | 0.00 | 0.00 | 51 | 958.8 |
| 20260905134505 | 80 | 223 | 0.0 | 0.0 | 0.00 | 0.00 | 0.00 | 54 | 958.9 |
| 20260905133106 | 80 | 253 | 0.0 | 0.0 | 0.00 | 0.00 | 0.00 | 57 | 958.9 |
| 20260905131609 | 79 | 190 | 0.0 | 0.0 | 0.00 | 0.00 | 0.00 | 60 | 959.1 |
| 20260905130101 | 77 | 175 | 0.0 | 0.0 | 0.00 | 0.00 | 0.00 | 63 | 959.1 |
| 20260905124558 | 76 | 157 | 0.0 | 0.0 | 0.00 | 0.00 | 0.00 | 68 | 959.1 |
| 20260905123027 | 75 | 156 | 0.0 | 0.0 | 0.00 | 0.00 | 0.00 | 68 | 959.1 |
| 20260905121530 | 74 | 156 | 0.0 | 0.0 | 0.00 | 0.00 | 0.00 | 67 | 958.8 |
| 20260905120024 | 73 | 156 | 0.0 | 0.0 | 0.00 | 0.00 | 0.00 | 66 | 958.8 |
| 20260905114523 | 72 | 156 | 0.0 | 0.0 | 0.00 | 0.00 | 0.00 | 64 | 958.7 |
| 20260905113022 | 72 | 180 | 0.0 | 0.0 | 0.00 | 0.00 | 0.00 | 60 | 958.4 |
| 20260905111540 | 72 | 180 | 0.0 | 0.0 | 0.00 | 0.00 | 0.00 | 59 | 958.2 |
| 20260905110017 | 72 | 180 | 0.0 | 0.0 | 0.00 | 0.00 | 0.00 | 54 | 957.8 |
| 20260905104517 | 72 | 180 | 0.0 | 0.0 | 0.00 | 0.00 | 0.00 | 47 | 957.6 |
| 20260905103017 | 72 | 180 | 0.0 | 0.0 | 0.00 | 0.00 | 0.00 | 46 | 957.5 |
| 20260905101516 | 73 | 165 | 0.0 | 0.0 | 0.00 | 0.00 | 0.00 | 45 | 957.5 |
| 20260905100018 | 73 | 165 | 0.0 | 0.0 | 0.00 | 0.00 | 0.00 | 33 | 957.4 |
| 20260905094513 | 73 | 165 | 0.0 | 0.0 | 0.00 | 0.00 | 0.00 | 29 | 957.5 |
| 20260905093009 | 73 | 165 | 0.0 | 0.0 | 0.00 | 0.00 | 0.00 | 24 | 957.6 |
| 20260905091508 | 73 | 165 | 0.0 | 0.0 | 0.00 | 0.00 | 0.00 | 22 | 957.4 |
| 20260905090003 | 73 | 165 | 0.0 | 0.0 | 0.00 | 0.00 | 0.00 | 17 | 957.4 |
| 20260905084501 | 73 | 165 | 0.0 | 0.0 | 0.00 | 0.00 | 0.00 | 10 | 957.5 |
| 20260905083059 | 74 | 165 | 0.0 | 0.0 | 0.00 | 0.00 | 0.00 | 10 | 957.7 |
| 20260905081556 | 74 | 165 | 0.0 | 0.0 | 0.00 | 0.00 | 0.00 | 10 | 957.9 |
| 20260905080054 | 74 | 165 | 0.0 | 0.0 | 0.00 | 0.00 | 0.00 | 14 | 957.9 |
| 20260905074556 | 74 | 165 | 0.0 | 0.0 | 0.00 | 0.00 | 0.00 | 18 | 958.2 |
| 20260905073058 | 75 | 165 | 0.0 | 0.0 | 0.00 | 0.00 | 0.00 | 25 | 958.2 |
| 20260905071546 | 75 | 165 | 0.0 | 1.7 | 0.00 | 0.00 | 0.00 | 28 | 958.3 |
| 20260905070012 | 75 | 165 | 0.0 | 2.6 | 0.00 | 0.00 | 0.00 | 35 | 958.5 |
| 20260905064510 | 75 | 296 | 0.0 | 0.0 | 0.00 | 0.00 | 0.00 | 39 | 958.5 |
| 20260905063039 | 75 | 296 | 0.0 | 0.0 | 0.00 | 0.00 | 0.00 | 42 | 958.8 |
| 20260905061538 | 76 | 296 | 0.0 | 0.0 | 0.00 | 0.00 | 0.00 | 43 | 958.8 |
| 20260905060037 | 76 | 296 | 0.0 | 0.0 | 0.00 | 0.00 | 0.00 | 46 | 959.0 |
| 20260905054542 | 76 | 296 | 0.0 | 1.7 | 0.00 | 0.00 | 0.00 | 49 | 959.1 |
| 20260905053029 | 77 | 296 | 0.0 | 0.9 | 0.00 | 0.00 | 0.00 | 53 | 959.0 |
| 20260905051527 | 77 | 296 | 0.0 | 0.9 | 0.00 | 0.00 | 0.00 | 53 | 959.0 |
| 20260905050056 | 77 | 296 | 0.0 | 0.9 | 0.00 | 0.00 | 0.00 | 56 | 959.1 |
| 20260905044553 | 78 | 296 | 0.0 | 0.0 | 0.00 | 0.00 | 0.00 | 56 | 959.3 |